Weather History for Jonesboro, AR

Change the Weather History Date:

Thursday, September 12, 2013

  Actual Average Record
Temperature  
Mean Temperature 84 °F 73 °F  
Max Temperature 96 °F 85 °F 99 °F (1939)
Min Temperature 72 °F 62 °F 40 °F (1917)
Degree Days  
Heating Degree Days 0 0  
Month to date heating degree days 0 0  
Since 1 July heating degree days 0 0  
Cooling Degree Days 19 8  
Month to date cooling degree days 200 124  
Year to date cooling degree days 1800 1670  
Growing Degree Days 34 (Base 50)    
Moisture  
Dew Point 71 °F    
Average Humidity 68    
Maximum Humidity 93    
Minimum Humidity 43    
Precipitation  
Precipitation 0.00 in 0.11 in 1.65 in (1975)
Month to date precipitation 0.24 1.22  
Year to date precipitation 37.69 32.33  
Snow  
Snow 0.00 in 0.00 in - ()
Month to date snowfall 0.0 0.0  
Since 1 July snowfall 0.0 0.0  
Since 1 September snowfall 0.0 0.0  
Snow Depth 0.00 in    
Sea Level Pressure  
Sea Level Pressure 30.01 in    
Wind  
Wind Speed 3 mph (NNW)    
Max Wind Speed 10 mph    
Max Gust Speed 18 mph    
Visibility 7 miles    
Events Thunderstorm    
T = Trace of Precipitation, MM = Missing Value Source: NWS Daily Summary

Daily Weather History Graph

Daily Weather History Graph

Search for Another Location

Airport:

Trip Planner

Search our weather history database for the weather conditions in past years. The results will help you decide how hot, cold, wet, or windy it might be!

Date:

Astronomy

Sep. 12, 2013 Rise Set
Actual Time 6:43 AM CDT 7:13 PM CDT
Civil Twilight 6:17 AM CDT 7:39 PM CDT
Nautical Twilight 5:47 AM CDT 8:09 PM CDT
Astronomical Twilight 5:16 AM CDT 8:40 PM CDT
Moon 1:58 PM CDT (9/12) No Moon Set
Length of Visible Light 13h 22m
Length of Day
12h 30m
Waxing Crescent, 50% of the Moon is Illuminated
Sep 12
Waxing Crescent
Sep 12
First Quarter
Sep 19
Full
Sep 26
Last Quarter
Oct 4
New

Hourly Weather History & Observations

Time (CDT) Temp. Heat Index Dew Point Humidity Pressure Visibility Wind Dir Wind Speed Gust Speed Precip Events Conditions
12:53 AM 75.9 °F - 72.0 °F 87% 30.05 in 5.0 mi Calm Calm - N/A   Clear
1:53 AM 75.0 °F - 71.1 °F 87% 30.05 in 4.0 mi Calm Calm - N/A   Clear
2:53 AM 73.9 °F - 71.1 °F 91% 30.04 in 5.0 mi Calm Calm - N/A   Clear
3:53 AM 73.9 °F - 71.1 °F 91% 30.03 in 5.0 mi Calm Calm - N/A   Clear
4:53 AM 73.9 °F - 71.1 °F 91% 30.03 in 3.0 mi Calm Calm - N/A   Clear
5:09 AM 73.4 °F - 69.8 °F 88% 30.04 in 2.5 mi Calm Calm - N/A   Clear
5:40 AM 73.4 °F - 69.8 °F 88% 30.04 in 3.0 mi Calm Calm - N/A   Clear
5:53 AM 73.0 °F - 70.0 °F 90% 30.04 in 3.0 mi Calm Calm - N/A   Clear
6:02 AM 73.4 °F - 69.8 °F 88% 30.04 in 2.5 mi Calm Calm - N/A   Clear
6:27 AM 73.4 °F - 69.8 °F 88% 30.04 in 4.0 mi Calm Calm - N/A   Clear
6:44 AM 73.4 °F - 69.8 °F 88% 30.05 in 1.8 mi Calm Calm - N/A   Clear
6:53 AM 73.0 °F - 70.0 °F 90% 30.04 in 0.8 mi Calm Calm - N/A   Clear
7:00 AM 73.4 °F - 69.8 °F 88% 30.05 in 1.8 mi Calm Calm - N/A   Clear
7:08 AM 73.4 °F - 69.8 °F 88% 30.06 in 2.5 mi Calm Calm - N/A   Clear
7:18 AM 73.4 °F - 71.6 °F 94% 30.06 in 4.0 mi Calm Calm - N/A   Clear
7:53 AM 75.9 °F - 72.0 °F 87% 30.05 in 4.0 mi Calm Calm - N/A   Clear
8:53 AM 81.0 °F 86.2 °F 73.9 °F 79% 30.05 in 6.0 mi Calm Calm - N/A   Haze
9:53 AM 87.1 °F 94.5 °F 73.0 °F 63% 30.06 in 10.0 mi WNW 4.6 mph - N/A   Clear
10:53 AM 90.0 °F 97.9 °F 73.0 °F 57% 30.04 in 10.0 mi Variable 4.6 mph - N/A   Clear
11:53 AM 93.0 °F 100.1 °F 71.1 °F 49% 30.03 in 10.0 mi Variable 3.5 mph - N/A   Clear
12:03 PM 91.4 °F 98.4 °F 71.6 °F 52% 30.04 in 10.0 mi Variable 6.9 mph - N/A   Partly Cloudy
12:53 PM 93.0 °F 99.0 °F 70.0 °F 47% 30.01 in 10.0 mi NNW 5.8 mph - N/A   Partly Cloudy
1:53 PM 95.0 °F 101.3 °F 70.0 °F 44% 29.99 in 10.0 mi North 8.1 mph - N/A   Clear
2:53 PM 93.9 °F 100.8 °F 71.1 °F 47% 29.96 in 10.0 mi NNW 4.6 mph - N/A   Partly Cloudy
3:53 PM 93.9 °F 100.8 °F 71.1 °F 47% 29.94 in 10.0 mi North 8.1 mph - N/A   Clear
4:53 PM 91.0 °F 99.3 °F 73.0 °F 55% 29.93 in 10.0 mi North 6.9 mph - N/A   Clear
5:04 PM 91.4 °F 100.1 °F 73.4 °F 55% 29.94 in 10.0 mi North 6.9 mph - N/A Thunderstorm Thunderstorm
5:19 PM 93.2 °F 100.5 °F 71.6 °F 49% 29.95 in 10.0 mi NNE 6.9 mph - N/A   Clear
5:53 PM 91.9 °F 98.4 °F 71.1 °F 50% 29.92 in 7.0 mi NNW 5.8 mph - N/A   Clear
6:53 PM 88.0 °F 92.1 °F 69.1 °F 53% 29.95 in 7.0 mi North 3.5 mph - N/A   Clear
7:53 PM 82.9 °F 87.5 °F 71.1 °F 67% 29.97 in 9.0 mi East 6.9 mph - N/A   Mostly Cloudy
8:53 PM 79.0 °F - 72.0 °F 79% 29.98 in 10.0 mi WNW 4.6 mph - N/A   Mostly Cloudy
9:53 PM 77.0 °F - 71.1 °F 82% 29.97 in 10.0 mi Calm Calm - N/A   Clear
10:53 PM 77.0 °F - 71.1 °F 82% 29.97 in 10.0 mi NNW 3.5 mph - N/A   Partly Cloudy
11:53 PM 75.9 °F - 70.0 °F 82% 29.98 in 10.0 mi North 3.5 mph - N/A   Clear